Hill City, KS

7:20 AM CST on November 23, 2017 (GMT -0600)
Hill City Municipal

Weather History for KHLC - March, 2013

Change the Weather History Date:

Friday, March 22, 2013

  Actual Average Record
Temperature  
Mean Temperature 40 °F 44 °F  
Max Temperature 55 °F 58 °F 90 °F (1910)
Min Temperature 25 °F 30 °F 5 °F (2002)
Degree Days  
Heating Degree Days 24    
Moisture  
Dew Point 30 °F    
Average Humidity 82    
Maximum Humidity 100    
Minimum Humidity 29    
Precipitation  
Precipitation 0.01 in 0.05 in 0.07 in (2005)
Month to date precipitation 0.09 1.04  
Year to date precipitation 1.28 2.01  
Sea Level Pressure  
Sea Level Pressure 29.90 in    
Wind  
Wind Speed 5 mph (SE)    
Max Wind Speed 18 mph    
Max Gust Speed 24 mph    
Visibility 6 miles    
Events Fog , Snow    
T = Trace of Precipitation, MM = Missing Value Source: NWS Daily Summary

Daily Weather History Graph

Daily Weather History Graph

Search for Another Location

Airport or City:

Trip Planner

Search our weather history database for the weather conditions in past years. The results will help you decide how hot, cold, wet, or windy it might be!

Date:

Astronomy

Mar. 22, 2013 Rise Set
Actual Time 7:39 AM CDT 7:53 PM CDT
Civil Twilight 7:12 AM CDT 8:20 PM CDT
Nautical Twilight 6:40 AM CDT 8:51 PM CDT
Astronomical Twilight 6:09 AM CDT 9:23 PM CDT
Moon 3:23 PM CDT (3/22) 4:39 AM CDT (3/22)
Length of Visible Light 13h 08m
Length of Day
12h 14m
Waxing Gibbous, 77% of the Moon is Illuminated
Mar 22
Waxing Gibbous
Mar 27
Full
Apr 2
Last Quarter
Apr 10
New
Apr 18
First Quarter

Hourly Weather History & Observations

Time (CDT) Temp. Windchill Dew Point Humidity Pressure Visibility Wind Dir Wind Speed Gust Speed Precip Events Conditions
12:38 AM 33.8 °F 29.6 °F 28.4 °F 81% 29.91 in 2.5 mi ESE 4.6 mph - 0.00 in Snow Light Snow
12:53 AM 32.0 °F 27.5 °F 28.9 °F 88% 29.94 in 1.8 mi ESE 4.6 mph - 0.00 in Snow Light Snow
1:15 AM 30.2 °F 21.9 °F 30.2 °F 100% 29.88 in 1.2 mi ESE 9.2 mph - 0.01 in Snow Light Snow
1:25 AM 30.2 °F 22.6 °F 30.2 °F 100% 29.89 in 1.5 mi SE 8.1 mph - 0.01 in Snow Light Snow
1:33 AM 30.2 °F 24.3 °F 30.2 °F 100% 29.90 in 2.5 mi SE 5.8 mph - 0.01 in Snow Light Snow
1:53 AM 30.9 °F 27.5 °F 30.0 °F 96% 29.92 in 7.0 mi SE 3.5 mph - 0.01 in   Overcast
2:53 AM 30.0 °F 26.5 °F 28.9 °F 96% 29.93 in 7.0 mi ESE 3.5 mph - N/A   Mostly Cloudy
3:26 AM 30.2 °F - 30.2 °F 100% 29.91 in 7.0 mi Calm Calm - N/A   Overcast
3:53 AM 30.0 °F - 28.9 °F 96% 29.92 in 8.0 mi Calm Calm - N/A   Overcast
4:53 AM 30.0 °F - 28.9 °F 96% 29.91 in 7.0 mi Calm Calm - N/A   Overcast
5:53 AM 28.9 °F 25.2 °F 28.9 °F 100% 29.91 in 6.0 mi WSW 3.5 mph - N/A   Overcast
6:11 AM 28.4 °F 24.6 °F 28.4 °F 100% 29.88 in 4.0 mi SW 3.5 mph - N/A   Overcast
6:53 AM 28.0 °F 21.7 °F 28.0 °F 100% 29.91 in 1.2 mi WSW 5.8 mph - N/A   Overcast
7:02 AM 28.4 °F 22.2 °F 28.4 °F 100% 29.88 in 0.5 mi WSW 5.8 mph - N/A Fog Light Freezing Fog
7:53 AM 26.1 °F 21.9 °F 26.1 °F 100% 29.93 in 0.2 mi SSW 3.5 mph - N/A Fog Light Freezing Fog
8:53 AM 27.0 °F 21.6 °F 27.0 °F 100% 29.95 in 0.2 mi SSW 4.6 mph - N/A Fog Light Freezing Fog
9:27 AM 28.4 °F 24.6 °F 28.4 °F 100% 29.91 in 0.8 mi SW 3.5 mph - N/A   Overcast
9:35 AM 28.4 °F 23.3 °F 28.4 °F 100% 29.90 in 1.5 mi SW 4.6 mph - N/A   Overcast
9:53 AM 30.0 °F 25.2 °F 30.0 °F 100% 29.96 in 1.8 mi South 4.6 mph - N/A   Overcast
10:02 AM 30.2 °F - 30.2 °F 100% 29.91 in 2.0 mi Calm Calm - N/A   Overcast
10:11 AM 30.2 °F - 30.2 °F 100% 29.90 in 3.0 mi Calm Calm - N/A   Overcast
10:53 AM 36.0 °F - 34.0 °F 93% 29.93 in 9.0 mi Calm Calm - N/A   Clear
11:37 AM 41.0 °F 36.4 °F 35.6 °F 81% 29.88 in 10.0 mi ESE 6.9 mph - N/A   Mostly Cloudy
11:53 AM 43.0 °F 41.3 °F 35.1 °F 74% 29.91 in 10.0 mi Variable 3.5 mph - N/A   Mostly Cloudy
12:53 PM 46.0 °F 44.8 °F 33.1 °F 61% 29.90 in 10.0 mi Variable 3.5 mph - N/A   Mostly Cloudy
1:53 PM 51.1 °F - 30.0 °F 44% 29.87 in 10.0 mi Variable 6.9 mph 17.3 mph N/A   Clear
2:53 PM 54.0 °F - 28.0 °F 37% 29.86 in 10.0 mi NNW 9.2 mph - N/A   Clear
3:53 PM 54.0 °F - 27.0 °F 35% 29.84 in 10.0 mi NNW 9.2 mph - N/A   Clear
4:53 PM 54.0 °F - 25.0 °F 33% 29.83 in 10.0 mi Variable 5.8 mph - N/A   Clear
5:53 PM 55.0 °F - 23.0 °F 29% 29.83 in 10.0 mi North 5.8 mph - N/A   Clear
6:53 PM 50.0 °F - 32.0 °F 50% 29.85 in 10.0 mi East 17.3 mph 24.2 mph N/A   Mostly Cloudy
7:53 PM 44.1 °F 37.4 °F 32.0 °F 63% 29.88 in 10.0 mi East 13.8 mph - N/A   Clear
8:53 PM 39.9 °F 32.9 °F 30.9 °F 70% 29.92 in 10.0 mi East 11.5 mph - N/A   Overcast
9:53 PM 37.0 °F 28.5 °F 30.0 °F 76% 29.92 in 10.0 mi East 13.8 mph - N/A   Clear
10:53 PM 37.0 °F 27.0 °F 30.0 °F 76% 29.93 in 10.0 mi East 18.4 mph 24.2 mph N/A   Mostly Cloudy
11:53 PM 36.0 °F 29.0 °F 30.0 °F 79% 29.99 in 10.0 mi East 9.2 mph - N/A   Overcast